Home   Weather   Volgograd   Past weeks

Flag for Russia Past Weather in Volgograd, Russia — Yesterday and Last 2 Weeks

Now
55 °F

Partly sunny.


Feels Like: 50 °F
Forecast: 36 / 58 °F
Wind: 22 mph from Northwest

Location: Volgograd Airport

Current Time: Apr 25, 2017 at 3:51:16 pm

Latest Report: Apr 25, 2017 at 3:00 pm


Visibility: N/A

Pressure: 30.15 "Hg

Humidity: 31%

Dew Point: 25 °F

Location of VolgogradLocation

Past Weather in Volgograd — Graph

°F

Volgograd Temperature Yesterday

Maximum temperature yesterday: 55 °F (at 4:30 pm)
Minimum temperature yesterday: 41 °F (at 11:30 pm)
Average temperature yesterday: 46 °F

High & Low Weather Summary for the Past Weeks

 TemperatureHumidityPressure
High70 °F (Apr 17, 3:00 pm)100% (Apr 13, 4:30 am)30.18 "Hg (Apr 13, 4:30 am)
Low28 °F (Apr 21, 4:00 am)29% (Apr 16, 3:00 pm)29.42 "Hg (Apr 24, 4:30 am)
Average49 °F70%29.89 "Hg
* Reported Apr 10 2:00 pm — Apr 25 2:30 pm, Volgograd, Weather by CustomWeather, © 2017

Note: Actual official high and low records may vary slightly from our data, if they occured in-between our weather recording intervals... More about our weather records

Advertising

Volgograd Weather History for the Previous 24 Hours

Scroll right to see more
 ConditionsComfort  
Time TempWeatherWind HumidityBarometerVisibility
2:30 pm
Tue, Apr 25
54 °FPartly sunny.20 mph38%30.15 "HgN/A
2:00 pm50 °FPartly sunny.13 mph40%30.15 "HgN/A
1:30 pm52 °FPartly sunny.17 mph41%30.12 "HgN/A
1:00 pm55 °FPartly sunny.20 mph36%30.12 "HgN/A
12:30 pm52 °FPartly sunny.20 mph38%30.09 "HgN/A
12:00 pm50 °FPartly sunny.17 mph67%30.09 "HgN/A
11:30 am52 °FPartly sunny.20 mph58%30.09 "HgN/A
11:00 am50 °FPartly sunny.22 mph62%30.09 "HgN/A
10:30 am48 °FPartly sunny.20 mph71%30.07 "HgN/A
10:00 am46 °FPartly sunny.22 mph76%30.07 "HgN/A
9:30 am46 °FPartly sunny.22 mph76%30.04 "HgN/A
9:00 am45 °FPartly sunny.20 mph76%30.01 "HgN/A
8:30 am43 °FPartly sunny.22 mph87%29.98 "HgN/A
8:00 am41 °FBroken clouds.22 mph93%29.98 "HgN/A
7:30 am41 °FBroken clouds.20 mph93%29.95 "HgN/A
6:30 am41 °FPartly sunny.8 mph93%29.92 "HgN/A
5:30 am39 °FLow clouds.8 mph100%29.86 "HgN/A
4:30 am39 °FFog.8 mph93%29.83 "Hg2 mi
4:00 am39 °FFog.13 mph93%29.83 "Hg2 mi
3:30 am39 °FPartly cloudy.13 mph93%29.83 "HgN/A
3:00 am39 °FPartly cloudy.15 mph93%29.83 "HgN/A
2:30 am39 °FSprinkles. Passing clouds.15 mph93%29.83 "HgN/A
1:30 am41 °FSprinkles. Passing clouds.17 mph87%29.83 "HgN/A
1:00 am43 °FSprinkles. Passing clouds.15 mph81%29.83 "HgN/A
12:30 am43 °FPassing clouds.15 mph81%29.83 "HgN/A
12:00 am43 °FPassing clouds.13 mph81%29.83 "HgN/A
11:30 pm
Mon, Apr 24
41 °FClear.15 mph87%29.86 "Hg10 mi
11:00 pm43 °FPassing clouds.13 mph81%29.86 "HgN/A
10:30 pm43 °FPassing clouds.15 mph87%29.86 "HgN/A
10:00 pm45 °FSprinkles. Passing clouds.8 mph93%29.83 "HgN/A
9:30 pm46 °FPassing clouds.15 mph82%29.83 "HgN/A
9:00 pm46 °FPassing clouds.6 mph82%29.83 "HgN/A
8:30 pm46 °FPassing clouds.10 mph82%29.83 "HgN/A
8:00 pm45 °FClear.8 mph81%29.83 "Hg10 mi
7:30 pm46 °FPassing clouds.6 mph76%29.83 "HgN/A
7:00 pm46 °FPassing clouds.8 mph76%29.80 "HgN/A
6:30 pm50 °FPassing clouds.10 mph67%29.80 "HgN/A
6:00 pm54 °FPartly sunny.8 mph54%29.80 "HgN/A
5:30 pm54 °FPartly sunny.15 mph51%29.77 "HgN/A
5:00 pm52 °FSunny.13 mph58%29.77 "Hg10 mi
4:30 pm55 °FPartly sunny.20 mph51%29.77 "HgN/A
4:00 pm52 °FPartly sunny.15 mph62%29.74 "HgN/A
3:30 pm54 °FPartly sunny.22 mph54%29.74 "HgN/A
3:00 pm52 °FPartly sunny.22 mph62%29.71 "HgN/A
Weather by CustomWeather, © 2017

See weather overviewHow to use our weather pages